SBI7520 ZJSY-ZWWW

Flight info

Callsign SBI7520
Flight time 5h 24m
Altitude 36100
Route ZJSY N0448F361 PORA28 PORAP W222 DOBVI W528 ANPIM G221 NYB W70 BHY R339 BSE V86 QNX A581 BIPIP W179 RIRKI W232 WFX W179 OMBON W195 UPKOD W565 DNC W622 BUKPU W197 ANDIM B215 IBANO G470 IRPEP B215 DUBUV DUMAM DUMA8Y WW604 WW514 WW601 WUR RW25 ZWWW
Aircraft B738/M-SDGIWZ/S

Departure

Time 2026-04-24 08:29
Airport Sanya Phoenix International Airport (ZJSY)

Arrival

Time 2026-04-24 13:53
Airport Ürümqi Tianshan International Airport (ZWWW)
Time Latitude Longitude Altitude Speed Heading
2026-04-24 08:11 18.30502 109.40350 100 ft 0 kts 351°
2026-04-24 08:24 18.30507 109.40350 100 ft 3 kts 351°
2026-04-24 08:24 18.30551 109.40342 100 ft 9 kts 351°
2026-04-24 08:25 18.30562 109.40337 100 ft 0 kts 309°
2026-04-24 08:25 18.30561 109.40337 100 ft 0 kts 309°
2026-04-24 08:25 18.30568 109.40329 100 ft 12 kts 304°
2026-04-24 08:25 18.30524 109.40243 100 ft 16 kts 174°
2026-04-24 08:26 18.30424 109.40240 100 ft 12 kts 220°
2026-04-24 08:26 18.30398 109.40134 100 ft 18 kts 263°
2026-04-24 08:26 18.30378 109.39988 100 ft 22 kts 262°
2026-04-24 08:26 18.30354 109.39806 100 ft 27 kts 262°
2026-04-24 08:27 18.30317 109.39629 100 ft 21 kts 220°
2026-04-24 08:27 18.30187 109.39628 100 ft 17 kts 173°
2026-04-24 08:27 18.30098 109.39684 100 ft 16 kts 97°
2026-04-24 08:27 18.30122 109.39893 100 ft 58 kts 82°
2026-04-24 08:28 18.30209 109.40560 100 ft 122 kts 82°
2026-04-24 08:28 18.30349 109.41637 101 ft 173 kts 81°
2026-04-24 08:28 18.30518 109.42987 289 ft 199 kts 82°
2026-04-24 08:28 18.30691 109.44524 634 ft 224 kts 82°
2026-04-24 08:29 18.30899 109.46088 1741 ft 209 kts 79°
2026-04-24 08:29 18.31102 109.47553 2496 ft 204 kts 80°
2026-04-24 08:29 18.31298 109.49067 2921 ft 216 kts 79°
2026-04-24 08:29 18.31559 109.50594 3583 ft 212 kts 69°
2026-04-24 08:30 18.32414 109.51798 4150 ft 211 kts 30°
2026-04-24 08:30 18.33785 109.52305 4745 ft 211 kts 16°
2026-04-24 08:30 18.35122 109.52876 5351 ft 209 kts 33°
2026-04-24 08:30 18.36352 109.53688 5856 ft 212 kts 33°
2026-04-24 08:31 18.37645 109.54488 6353 ft 216 kts 31°
2026-04-24 08:31 18.38924 109.55260 6931 ft 215 kts 32°
2026-04-24 08:31 18.40229 109.56059 7457 ft 217 kts 33°
2026-04-24 08:31 18.41539 109.56847 7964 ft 219 kts 32°
2026-04-24 08:32 18.42840 109.57639 8463 ft 220 kts 33°
2026-04-24 08:32 18.44180 109.58457 8919 ft 224 kts 34°
2026-04-24 08:32 18.45510 109.59264 9409 ft 225 kts 34°
2026-04-24 08:32 18.46873 109.60097 9823 ft 228 kts 34°
2026-04-24 08:33 18.48239 109.60931 10350 ft 227 kts 34°
2026-04-24 08:33 18.49657 109.61745 10640 ft 238 kts 31°
2026-04-24 08:33 18.51211 109.62472 10766 ft 255 kts 28°
2026-04-24 08:33 18.52872 109.63248 11067 ft 262 kts 29°
2026-04-24 08:34 18.54525 109.64039 11398 ft 268 kts 30°
2026-04-24 08:34 18.56241 109.64858 11782 ft 271 kts 30°
2026-04-24 08:34 18.57963 109.65681 12214 ft 273 kts 30°
2026-04-24 08:34 18.59671 109.66498 12627 ft 274 kts 30°
2026-04-24 08:35 18.61403 109.67326 13052 ft 275 kts 30°
2026-04-24 08:35 18.63156 109.68166 13460 ft 277 kts 30°
2026-04-24 08:35 18.64910 109.69006 13860 ft 278 kts 30°
2026-04-24 08:35 18.66655 109.69843 14244 ft 279 kts 30°
2026-04-24 08:36 18.68420 109.70689 14623 ft 280 kts 29°
2026-04-24 08:36 18.70190 109.71538 14991 ft 281 kts 29°
2026-04-24 08:36 18.71970 109.72392 15350 ft 283 kts 29°
2026-04-24 08:36 18.73760 109.73250 15701 ft 284 kts 29°
2026-04-24 08:37 18.75564 109.74116 16044 ft 285 kts 29°
2026-04-24 08:37 18.77364 109.74979 16376 ft 286 kts 29°
2026-04-24 08:37 18.79177 109.75850 16701 ft 288 kts 29°
2026-04-24 08:37 18.80985 109.76718 17015 ft 289 kts 28°
2026-04-24 08:38 18.82814 109.77596 17324 ft 290 kts 28°
2026-04-24 08:38 18.84663 109.78485 17627 ft 291 kts 28°
2026-04-24 08:38 18.86492 109.79364 17919 ft 292 kts 28°
2026-04-24 08:38 18.88338 109.80250 18204 ft 293 kts 28°
2026-04-24 08:39 18.90185 109.81139 18492 ft 294 kts 28°
2026-04-24 08:39 18.92054 109.82037 18772 ft 295 kts 28°
2026-04-24 08:39 18.93929 109.82939 19045 ft 296 kts 28°
2026-04-24 08:39 18.95797 109.83838 19311 ft 296 kts 27°
2026-04-24 08:40 18.97668 109.84738 19553 ft 299 kts 27°
2026-04-24 08:40 18.99585 109.85662 19742 ft 305 kts 27°
2026-04-24 08:40 19.01534 109.86601 19853 ft 316 kts 27°
2026-04-24 08:40 19.03556 109.87576 19920 ft 327 kts 27°
2026-04-24 08:41 19.05646 109.88583 19977 ft 339 kts 27°
2026-04-24 08:41 19.07816 109.89629 20027 ft 350 kts 27°
2026-04-24 08:41 19.10059 109.90710 20076 ft 361 kts 26°
2026-04-24 08:41 19.12374 109.91827 20125 ft 371 kts 26°
2026-04-24 08:42 19.14754 109.92975 20174 ft 381 kts 26°
2026-04-24 08:42 19.17193 109.94151 20250 ft 389 kts 26°
2026-04-24 08:42 19.19671 109.95346 20506 ft 392 kts 26°
2026-04-24 08:42 19.22131 109.96534 20729 ft 396 kts 26°
2026-04-24 08:43 19.24650 109.97749 21044 ft 397 kts 26°
2026-04-24 08:43 19.27177 109.98946 21332 ft 399 kts 25°
2026-04-24 08:43 19.29702 110.00104 21597 ft 400 kts 25°
2026-04-24 08:43 19.32278 110.01256 21881 ft 402 kts 21°
2026-04-24 08:44 19.35020 110.01872 22042 ft 411 kts
2026-04-24 08:44 19.37839 110.01514 22497 ft 410 kts 351°
2026-04-24 08:44 19.40628 110.00861 22617 ft 416 kts 351°
2026-04-24 08:44 19.43460 110.00240 22882 ft 416 kts 351°
2026-04-24 08:45 19.46291 109.99639 23120 ft 418 kts 351°
2026-04-24 08:45 19.49114 109.99033 23308 ft 420 kts 351°
2026-04-24 08:45 19.51980 109.98416 23588 ft 420 kts 351°
2026-04-24 08:45 19.54856 109.97826 23791 ft 421 kts 354°
2026-04-24 08:46 19.57726 109.97530 23988 ft 420 kts
2026-04-24 08:46 19.60614 109.97581 24233 ft 418 kts
2026-04-24 08:46 19.63507 109.97858 24428 ft 419 kts
2026-04-24 08:46 19.66373 109.98389 24612 ft 419 kts 14°
2026-04-24 08:47 19.69169 109.99180 24819 ft 418 kts 19°
2026-04-24 08:47 19.71932 110.00160 25005 ft 419 kts 21°
2026-04-24 08:47 19.74669 110.01246 25187 ft 420 kts 22°
2026-04-24 08:47 19.77358 110.02381 25365 ft 421 kts 23°
2026-04-24 08:48 19.80063 110.03573 25540 ft 422 kts 24°
2026-04-24 08:48 19.82774 110.04803 25710 ft 423 kts 24°
2026-04-24 08:48 19.85445 110.06041 25875 ft 424 kts 25°
2026-04-24 08:48 19.88156 110.07313 26038 ft 424 kts 25°
2026-04-24 08:49 19.90829 110.08558 26189 ft 426 kts 22°
2026-04-24 08:49 19.93695 110.09431 26297 ft 429 kts 12°
2026-04-24 08:49 19.96631 110.09940 26536 ft 429 kts
2026-04-24 08:49 19.99594 110.10164 26588 ft 434 kts
2026-04-24 08:50 20.02558 110.09650 26745 ft 438 kts 345°
2026-04-24 08:50 20.05426 110.08633 26981 ft 437 kts 343°
2026-04-24 08:50 20.08266 110.07437 27020 ft 443 kts 336°
2026-04-24 08:50 20.10917 110.05698 27139 ft 448 kts 325°
2026-04-24 08:51 20.13285 110.03593 27334 ft 448 kts 322°
2026-04-24 08:51 20.15665 110.01451 27392 ft 450 kts 323°
2026-04-24 08:51 20.18092 109.99347 27530 ft 451 kts 324°
2026-04-24 08:51 20.20531 109.97246 27661 ft 451 kts 323°
2026-04-24 08:52 20.22957 109.95144 27770 ft 452 kts 323°
2026-04-24 08:52 20.25381 109.93040 27899 ft 453 kts 323°
2026-04-24 08:52 20.27804 109.90939 28011 ft 453 kts 323°
2026-04-24 08:52 20.30237 109.88829 28123 ft 454 kts 323°
2026-04-24 08:53 20.32682 109.86709 28236 ft 455 kts 323°
2026-04-24 08:53 20.35151 109.84566 28342 ft 455 kts 323°
2026-04-24 08:53 20.37588 109.82452 28446 ft 456 kts 323°
2026-04-24 08:53 20.40044 109.80319 28548 ft 456 kts 323°
2026-04-24 08:54 20.42477 109.78206 28644 ft 457 kts 323°
2026-04-24 08:54 20.47489 109.74068 28811 ft 456 kts 330°
2026-04-24 08:55 20.53220 109.71364 28972 ft 450 kts 349°
2026-04-24 08:55 20.56269 109.70815 29094 ft 448 kts 355°
2026-04-24 08:55 20.59349 109.70409 29167 ft 449 kts 354°
2026-04-24 08:55 20.62436 109.69957 29278 ft 448 kts 354°
2026-04-24 08:56 20.65532 109.69482 29459 ft 446 kts 354°
2026-04-24 08:56 20.68571 109.69026 29564 ft 446 kts 354°
2026-04-24 08:56 20.71649 109.68575 29673 ft 446 kts 354°
2026-04-24 08:56 20.74723 109.68127 29804 ft 445 kts 354°
2026-04-24 08:57 20.77770 109.67682 29909 ft 445 kts 354°
2026-04-24 08:57 20.80823 109.67237 30018 ft 445 kts 354°
2026-04-24 08:57 20.83880 109.66792 30127 ft 444 kts 354°
2026-04-24 08:57 20.86934 109.66349 30230 ft 444 kts 354°
2026-04-24 08:58 20.89948 109.65912 30333 ft 443 kts 354°
2026-04-24 08:58 20.96039 109.65029 30532 ft 443 kts 354°
2026-04-24 08:59 21.02129 109.64147 30689 ft 443 kts 354°
2026-04-24 08:59 21.08205 109.63266 30821 ft 444 kts 353°
2026-04-24 09:00 21.14340 109.62376 30960 ft 444 kts 353°
2026-04-24 09:00 21.17388 109.61935 31067 ft 444 kts 353°
2026-04-24 09:00 21.20444 109.61491 31155 ft 444 kts 353°
2026-04-24 09:01 21.26504 109.60603 31337 ft 443 kts 352°
2026-04-24 09:01 21.32471 109.58973 31485 ft 445 kts 340°
2026-04-24 09:02 21.37931 109.55898 31666 ft 445 kts 331°
2026-04-24 09:02 21.43295 109.52600 31779 ft 446 kts 332°
2026-04-24 09:03 21.48686 109.49310 31908 ft 446 kts 332°
2026-04-24 09:03 21.54020 109.46014 32039 ft 446 kts 330°
2026-04-24 09:04 21.59078 109.42171 32151 ft 449 kts 319°
2026-04-24 09:04 21.63224 109.37149 32328 ft 449 kts 312°
2026-04-24 09:05 21.67265 109.32045 32428 ft 449 kts 312°
2026-04-24 09:05 21.71280 109.26971 32533 ft 449 kts 312°
2026-04-24 09:06 21.75287 109.21860 32652 ft 449 kts 312°
2026-04-24 09:06 21.79310 109.16717 32846 ft 446 kts 312°
2026-04-24 09:07 21.83278 109.11631 33009 ft 445 kts 311°
2026-04-24 09:07 21.89222 109.04029 33221 ft 443 kts 311°
2026-04-24 09:08 21.93188 108.98967 33335 ft 443 kts 311°
2026-04-24 09:08 21.97123 108.93935 33436 ft 442 kts 311°
2026-04-24 09:09 22.01077 108.88874 33537 ft 442 kts 311°
2026-04-24 09:09 22.05012 108.83833 33637 ft 441 kts 311°
2026-04-24 09:10 22.08952 108.78778 33737 ft 441 kts 311°
2026-04-24 09:10 22.12878 108.73739 33837 ft 440 kts 311°
2026-04-24 09:11 22.16830 108.68691 33937 ft 440 kts 311°
2026-04-24 09:11 22.20766 108.63657 34038 ft 439 kts 311°
2026-04-24 09:12 22.24668 108.58661 34137 ft 439 kts 311°
2026-04-24 09:12 22.28587 108.53638 34238 ft 438 kts 311°
2026-04-24 09:13 22.32507 108.48609 34338 ft 437 kts 311°
2026-04-24 09:13 22.36392 108.43619 34438 ft 436 kts 311°
2026-04-24 09:14 22.40273 108.38631 34537 ft 436 kts 311°
2026-04-24 09:14 22.44165 108.33623 34638 ft 435 kts 310°
2026-04-24 09:15 22.48032 108.28641 34738 ft 434 kts 310°
2026-04-24 09:15 22.51904 108.23649 34838 ft 433 kts 310°
2026-04-24 09:16 22.55763 108.18670 34938 ft 432 kts 310°
2026-04-24 09:16 22.59615 108.13741 35037 ft 431 kts 313°
2026-04-24 09:17 22.63750 108.09067 35138 ft 430 kts 315°
2026-04-24 09:17 22.67864 108.04400 35238 ft 429 kts 314°
2026-04-24 09:18 22.71946 107.99741 35338 ft 428 kts 314°
2026-04-24 09:18 22.76011 107.95097 35438 ft 427 kts 314°
2026-04-24 09:19 22.80073 107.90445 35537 ft 426 kts 314°
2026-04-24 09:19 22.84118 107.85808 35637 ft 424 kts 314°
2026-04-24 09:20 22.88163 107.81166 35737 ft 423 kts 314°
2026-04-24 09:20 22.92180 107.76551 35837 ft 422 kts 314°
2026-04-24 09:21 22.96192 107.71937 35936 ft 421 kts 314°
2026-04-24 09:21 22.98188 107.69640 36042 ft 418 kts 314°
2026-04-24 09:21 23.00178 107.67349 36038 ft 419 kts 314°
2026-04-24 09:22 23.04159 107.62762 36039 ft 420 kts 314°
2026-04-24 09:22 23.08174 107.58138 36039 ft 421 kts 314°
2026-04-24 09:23 23.12176 107.53523 36039 ft 422 kts 314°
2026-04-24 09:23 23.16202 107.48877 36039 ft 423 kts 314°
2026-04-24 09:24 23.20210 107.44247 36039 ft 424 kts 314°
2026-04-24 09:24 23.24255 107.39569 36038 ft 425 kts 314°
2026-04-24 09:25 23.28283 107.34907 36039 ft 426 kts 313°
2026-04-24 09:25 23.32330 107.30218 36039 ft 427 kts 313°
2026-04-24 09:26 23.36377 107.25526 36038 ft 428 kts 313°
2026-04-24 09:26 23.40429 107.20822 36039 ft 428 kts 313°
2026-04-24 09:27 23.44507 107.16084 36038 ft 429 kts 313°
2026-04-24 09:27 23.48570 107.11358 36039 ft 430 kts 313°
2026-04-24 09:28 23.52638 107.06622 36039 ft 430 kts 313°
2026-04-24 09:28 23.56731 107.01852 36038 ft 431 kts 313°
2026-04-24 09:29 23.60809 106.97096 36038 ft 431 kts 313°
2026-04-24 09:29 23.64895 106.92325 36039 ft 432 kts 313°
2026-04-24 09:30 23.68974 106.87558 36039 ft 432 kts 313°
2026-04-24 09:30 23.73053 106.82786 36039 ft 433 kts 312°
2026-04-24 09:31 23.77164 106.77972 36039 ft 434 kts 312°
2026-04-24 09:31 23.81267 106.73163 36039 ft 434 kts 312°
2026-04-24 09:32 23.85365 106.68354 36038 ft 435 kts 312°
2026-04-24 09:32 23.89568 106.63648 36037 ft 436 kts 319°
2026-04-24 09:33 23.94715 106.60241 36040 ft 437 kts 339°
2026-04-24 09:33 24.00634 106.58752 36040 ft 439 kts 350°
2026-04-24 09:34 24.06644 106.57690 36039 ft 440 kts 349°
2026-04-24 09:34 24.12633 106.56575 36038 ft 440 kts 349°
2026-04-24 09:35 24.18665 106.55486 36057 ft 440 kts 349°
2026-04-24 09:35 24.24680 106.54402 36116 ft 439 kts 349°
2026-04-24 09:36 24.30711 106.53317 36177 ft 439 kts 349°
2026-04-24 09:36 24.36674 106.52246 36201 ft 439 kts 349°
2026-04-24 09:37 24.42715 106.51161 36201 ft 439 kts 349°
2026-04-24 09:37 24.48695 106.50086 36201 ft 440 kts 349°
2026-04-24 09:38 24.54743 106.48998 36201 ft 441 kts 349°
2026-04-24 09:38 24.60735 106.47920 36201 ft 441 kts 349°
2026-04-24 09:39 24.66800 106.46827 36201 ft 441 kts 349°
2026-04-24 09:39 24.72843 106.45737 36201 ft 442 kts 349°
2026-04-24 09:40 24.78870 106.44649 36200 ft 442 kts 349°
2026-04-24 09:40 24.84914 106.43558 36201 ft 443 kts 349°
2026-04-24 09:41 24.90988 106.42459 36201 ft 443 kts 349°
2026-04-24 09:41 24.97046 106.41362 36201 ft 443 kts 349°
2026-04-24 09:42 25.03108 106.40263 36200 ft 443 kts 348°
2026-04-24 09:42 25.09140 106.39160 36200 ft 441 kts 348°
2026-04-24 09:43 25.15182 106.38057 36201 ft 439 kts 347°
2026-04-24 09:43 25.21164 106.36963 36201 ft 439 kts 347°
2026-04-24 09:44 25.27166 106.35864 36201 ft 439 kts 347°
2026-04-24 09:44 25.33169 106.34763 36201 ft 439 kts 347°
2026-04-24 09:45 25.39200 106.33657 36201 ft 440 kts 347°
2026-04-24 09:45 25.45205 106.32555 36201 ft 440 kts 347°
2026-04-24 09:46 25.51221 106.31448 36201 ft 439 kts 347°
2026-04-24 09:46 25.57223 106.30344 36201 ft 439 kts 347°
2026-04-24 09:47 25.63222 106.29239 36201 ft 439 kts 347°
2026-04-24 09:47 25.69202 106.28136 36201 ft 439 kts 347°
2026-04-24 09:48 25.75236 106.27023 36201 ft 439 kts 347°
2026-04-24 09:48 25.81226 106.25916 36201 ft 439 kts 347°
2026-04-24 09:49 25.87232 106.24806 36201 ft 439 kts 347°
2026-04-24 09:49 25.93272 106.23688 36201 ft 439 kts 347°
2026-04-24 09:50 25.99245 106.22581 36201 ft 439 kts 347°
2026-04-24 09:50 26.05247 106.21468 36201 ft 439 kts 347°
2026-04-24 09:51 26.11288 106.20346 36201 ft 439 kts 347°
2026-04-24 09:51 26.17267 106.19235 36201 ft 439 kts 347°
2026-04-24 09:52 26.23275 106.18116 36201 ft 439 kts 347°
2026-04-24 09:52 26.29260 106.17001 36201 ft 439 kts 347°
2026-04-24 09:53 26.35273 106.15880 36201 ft 439 kts 347°
2026-04-24 09:53 26.41252 106.14768 36201 ft 439 kts 347°
2026-04-24 09:54 26.47253 106.13652 36201 ft 439 kts 347°
2026-04-24 09:54 26.53241 106.12536 36201 ft 439 kts 347°
2026-04-24 09:55 26.59237 106.11418 36201 ft 439 kts 347°
2026-04-24 09:55 26.65254 106.10294 36201 ft 439 kts 347°
2026-04-24 09:56 26.71256 106.09173 36201 ft 439 kts 347°
2026-04-24 09:56 26.77268 106.08048 36201 ft 439 kts 347°
2026-04-24 09:57 26.83264 106.06924 36201 ft 439 kts 347°
2026-04-24 09:57 26.89261 106.05800 36201 ft 439 kts 347°
2026-04-24 09:58 26.95323 106.05237 36200 ft 446 kts
2026-04-24 09:58 26.98411 106.05771 36201 ft 451 kts 11°
2026-04-24 09:58 27.01368 106.06944 36202 ft 457 kts 20°
2026-04-24 09:59 27.06676 106.10848 36200 ft 467 kts 43°
2026-04-24 09:59 27.10406 106.16831 36204 ft 474 kts 60°
2026-04-24 10:00 27.13686 106.23170 36192 ft 470 kts 45°
2026-04-24 10:00 27.16147 106.25520 36200 ft 459 kts 25°
2026-04-24 10:00 27.19053 106.26807 36200 ft 447 kts
2026-04-24 10:01 27.22085 106.26995 36219 ft 437 kts 352°
2026-04-24 10:01 27.25107 106.26804 36191 ft 439 kts 355°
2026-04-24 10:01 27.31171 106.26656 36196 ft 434 kts 343°
2026-04-24 10:02 27.33993 106.25531 36204 ft 422 kts 325°
2026-04-24 10:02 27.36327 106.23614 36215 ft 417 kts 315°
2026-04-24 10:02 27.40656 106.19315 36195 ft 417 kts 311°
2026-04-24 10:03 27.44224 106.14246 36194 ft 415 kts 307°
2026-04-24 10:03 27.48453 106.09817 36201 ft 420 kts 316°
2026-04-24 10:04 27.52841 106.05496 36201 ft 421 kts 315°
2026-04-24 10:04 27.57255 106.01117 36201 ft 423 kts 315°
2026-04-24 10:05 27.61595 105.96849 36200 ft 424 kts 315°
2026-04-24 10:05 27.66021 105.92486 36201 ft 424 kts 315°
2026-04-24 10:06 27.72316 105.85593 36200 ft 418 kts 302°
2026-04-24 10:06 27.73741 105.82759 36202 ft 415 kts 291°
2026-04-24 10:07 27.74698 105.79743 36206 ft 413 kts 285°
2026-04-24 10:07 27.76395 105.73550 36200 ft 414 kts 287°
2026-04-24 10:08 27.78183 105.67355 36201 ft 414 kts 286°
2026-04-24 10:08 27.79929 105.61220 36200 ft 414 kts 289°
2026-04-24 10:09 27.82236 105.55235 36122 ft 416 kts 292°
2026-04-24 10:09 27.84558 105.49288 36121 ft 414 kts 291°
2026-04-24 10:10 27.87026 105.43432 36119 ft 417 kts 300°
2026-04-24 10:10 27.90805 105.38435 36120 ft 424 kts 317°
2026-04-24 10:11 27.95875 105.34978 36123 ft 432 kts 330°
2026-04-24 10:11 28.01288 105.32061 36120 ft 431 kts 329°
2026-04-24 10:12 28.06628 105.29076 36119 ft 431 kts 330°
2026-04-24 10:12 28.12031 105.26122 36120 ft 431 kts 330°
2026-04-24 10:13 28.17413 105.23168 36120 ft 431 kts 329°
2026-04-24 10:13 28.22772 105.20186 36120 ft 431 kts 330°
2026-04-24 10:14 28.28132 105.17220 36120 ft 431 kts 330°
2026-04-24 10:14 28.33544 105.14256 36121 ft 432 kts 330°
2026-04-24 10:15 28.38929 105.11306 36120 ft 431 kts 330°
2026-04-24 10:15 28.44312 105.08351 36120 ft 431 kts 330°
2026-04-24 10:16 28.49691 105.05383 36120 ft 432 kts 330°
2026-04-24 10:16 28.55071 105.02390 36120 ft 432 kts 330°
2026-04-24 10:17 28.60443 104.99410 36119 ft 433 kts 330°
2026-04-24 10:17 28.65830 104.96421 36120 ft 432 kts 330°
2026-04-24 10:18 28.71207 104.93435 36120 ft 433 kts 330°
2026-04-24 10:18 28.76601 104.90437 36120 ft 433 kts 329°
2026-04-24 10:19 28.82010 104.87429 36120 ft 434 kts 329°
2026-04-24 10:19 28.87418 104.84418 36119 ft 434 kts 329°
2026-04-24 10:20 28.92840 104.81396 36119 ft 434 kts 329°
2026-04-24 10:20 28.98212 104.78396 36120 ft 434 kts 329°
2026-04-24 10:21 29.03610 104.75378 36120 ft 435 kts 329°
2026-04-24 10:21 29.09045 104.72351 36120 ft 436 kts 329°
2026-04-24 10:22 29.14475 104.69283 36120 ft 438 kts 328°
2026-04-24 10:22 29.19935 104.66197 36120 ft 439 kts 329°
2026-04-24 10:23 29.25387 104.63158 36119 ft 439 kts 329°
2026-04-24 10:23 29.31088 104.60563 36119 ft 445 kts 340°
2026-04-24 10:24 29.37260 104.59558 36121 ft 454 kts 352°
2026-04-24 10:24 29.43521 104.59077 36069 ft 455 kts 351°
2026-04-24 10:25 29.49818 104.58488 36064 ft 453 kts 351°
2026-04-24 10:25 29.56048 104.57942 36066 ft 453 kts 351°
2026-04-24 10:26 29.62347 104.57406 36066 ft 455 kts 351°
2026-04-24 10:26 29.68640 104.56876 36066 ft 454 kts 351°
2026-04-24 10:27 29.74900 104.56377 36066 ft 454 kts 351°
2026-04-24 10:27 29.81171 104.55877 36065 ft 455 kts 351°
2026-04-24 10:28 29.87474 104.55361 36065 ft 454 kts 351°
2026-04-24 10:28 29.93733 104.54856 36065 ft 453 kts 351°
2026-04-24 10:29 29.99992 104.54340 36065 ft 454 kts 351°
2026-04-24 10:29 30.06256 104.53812 36065 ft 454 kts 351°
2026-04-24 10:30 30.12562 104.53278 36065 ft 455 kts 351°
2026-04-24 10:30 30.18829 104.52756 36066 ft 454 kts 351°
2026-04-24 10:31 30.25103 104.52228 36066 ft 453 kts 351°
2026-04-24 10:31 30.31359 104.51696 36066 ft 454 kts 351°
2026-04-24 10:32 30.37638 104.51165 36065 ft 453 kts 351°
2026-04-24 10:32 30.43913 104.50635 36067 ft 453 kts 351°
2026-04-24 10:33 30.50180 104.50105 36066 ft 455 kts 351°
2026-04-24 10:33 30.56438 104.49577 36065 ft 453 kts 350°
2026-04-24 10:34 30.62513 104.48143 36067 ft 444 kts 338°
2026-04-24 10:34 30.68384 104.45979 36067 ft 445 kts 338°
2026-04-24 10:35 30.74279 104.43845 36065 ft 444 kts 338°
2026-04-24 10:35 30.80121 104.41660 36067 ft 445 kts 337°
2026-04-24 10:36 30.86112 104.39728 36067 ft 449 kts 345°
2026-04-24 10:36 30.92297 104.39028 36065 ft 455 kts 353°
2026-04-24 10:37 30.98646 104.38843 36066 ft 456 kts 352°
2026-04-24 10:37 31.04939 104.38593 36065 ft 457 kts 351°
2026-04-24 10:38 31.11292 104.38366 36067 ft 458 kts 351°
2026-04-24 10:38 31.17636 104.38164 36066 ft 457 kts 351°
2026-04-24 10:39 31.23941 104.37978 36066 ft 458 kts 351°
2026-04-24 10:39 31.30276 104.37713 36066 ft 456 kts 349°
2026-04-24 10:40 31.36575 104.37295 36065 ft 454 kts 349°
2026-04-24 10:40 31.42877 104.36898 36066 ft 455 kts 350°
2026-04-24 10:41 31.49193 104.36571 36065 ft 457 kts 350°
2026-04-24 10:41 31.55506 104.36239 36066 ft 456 kts 350°
2026-04-24 10:42 31.61791 104.35888 36065 ft 453 kts 350°
2026-04-24 10:42 31.68096 104.35527 36067 ft 454 kts 350°
2026-04-24 10:43 31.74373 104.35166 36067 ft 455 kts 350°
2026-04-24 10:43 31.80676 104.34800 36065 ft 455 kts 349°
2026-04-24 10:44 31.87003 104.34441 36067 ft 456 kts 349°
2026-04-24 10:44 31.93289 104.34140 36066 ft 456 kts 350°
2026-04-24 10:45 31.99600 104.33862 36066 ft 455 kts 350°
2026-04-24 10:45 32.05894 104.33521 36066 ft 453 kts 349°
2026-04-24 10:46 32.12204 104.33141 36065 ft 455 kts 349°
2026-04-24 10:46 32.18477 104.32798 36066 ft 454 kts 350°
2026-04-24 10:47 32.24762 104.32529 36066 ft 454 kts 350°
2026-04-24 10:47 32.31064 104.32247 36066 ft 456 kts 350°
2026-04-24 10:48 32.37380 104.31927 36065 ft 455 kts 349°
2026-04-24 10:48 32.43677 104.31624 36066 ft 457 kts 350°
2026-04-24 10:49 32.50005 104.31313 36066 ft 455 kts 349°
2026-04-24 10:49 32.56301 104.30959 36067 ft 454 kts 349°
2026-04-24 10:50 32.62595 104.30603 36068 ft 456 kts 349°
2026-04-24 10:50 32.68898 104.30273 36066 ft 457 kts 350°
2026-04-24 10:51 32.75220 104.29967 36065 ft 454 kts 350°
2026-04-24 10:51 32.81502 104.29653 36066 ft 455 kts 350°
2026-04-24 10:52 32.87818 104.29336 36066 ft 456 kts 350°
2026-04-24 10:52 32.94114 104.29030 36065 ft 454 kts 350°
2026-04-24 10:53 33.00391 104.28725 36066 ft 455 kts 349°
2026-04-24 10:53 33.06713 104.28417 36066 ft 457 kts 349°
2026-04-24 10:54 33.13018 104.28128 36066 ft 458 kts 348°
2026-04-24 10:54 33.19344 104.27829 36064 ft 457 kts 348°
2026-04-24 10:55 33.25724 104.27527 36066 ft 459 kts 348°
2026-04-24 10:55 33.32025 104.27190 36064 ft 453 kts 344°
2026-04-24 10:55 33.35100 104.26562 36063 ft 441 kts 335°
2026-04-24 10:56 33.37919 104.25392 36066 ft 427 kts 325°
2026-04-24 10:56 33.43029 104.21976 36067 ft 422 kts 320°
2026-04-24 10:57 33.48148 104.18555 36098 ft 423 kts 321°
2026-04-24 10:57 33.53258 104.15120 36150 ft 423 kts 321°
2026-04-24 10:58 33.58635 104.12125 36203 ft 438 kts 334°
2026-04-24 10:58 33.61652 104.11357 36230 ft 452 kts 345°
2026-04-24 10:58 33.64836 104.11204 36234 ft 462 kts 351°
2026-04-24 10:59 33.71214 104.11296 36227 ft 461 kts 351°
2026-04-24 10:59 33.77611 104.11231 36228 ft 461 kts 350°
2026-04-24 11:00 33.83988 104.11180 36228 ft 461 kts 351°
2026-04-24 11:00 33.90397 104.11201 36229 ft 462 kts 351°
2026-04-24 11:01 33.96806 104.11227 36226 ft 462 kts 351°
2026-04-24 11:01 34.03167 104.11237 36228 ft 462 kts 351°
2026-04-24 11:02 34.09577 104.11250 36227 ft 462 kts 351°
2026-04-24 11:02 34.15962 104.11246 36226 ft 460 kts 351°
2026-04-24 11:03 34.22327 104.11243 36228 ft 461 kts 351°
2026-04-24 11:03 34.28740 104.11249 36228 ft 461 kts 351°
2026-04-24 11:04 34.35111 104.11240 36228 ft 461 kts 350°
2026-04-24 11:04 34.41518 104.11195 36228 ft 460 kts 350°
2026-04-24 11:05 34.47852 104.11179 36228 ft 459 kts 351°
2026-04-24 11:05 34.54248 104.11210 36227 ft 462 kts 351°
2026-04-24 11:06 34.60656 104.11245 36228 ft 462 kts 351°
2026-04-24 11:06 34.67059 104.11245 36227 ft 460 kts 351°
2026-04-24 11:07 34.76633 104.11262 36228 ft 462 kts 351°
2026-04-24 11:07 34.82994 104.11276 36228 ft 460 kts 351°
2026-04-24 11:08 34.89398 104.11258 36230 ft 460 kts 350°
2026-04-24 11:08 34.95742 104.11247 36228 ft 459 kts 350°
2026-04-24 11:09 35.02078 104.11225 36228 ft 457 kts 349°
2026-04-24 11:09 35.08433 104.11211 36228 ft 456 kts 349°
2026-04-24 11:10 35.14728 104.11204 36228 ft 456 kts 349°
2026-04-24 11:10 35.21096 104.11198 36228 ft 458 kts 349°
2026-04-24 11:11 35.27410 104.11197 36228 ft 458 kts 349°
2026-04-24 11:11 35.33762 104.11196 36228 ft 457 kts 349°
2026-04-24 11:12 35.40084 104.11196 36227 ft 456 kts 349°
2026-04-24 11:12 35.46443 104.11194 36227 ft 457 kts 349°
2026-04-24 11:13 35.52782 104.11200 36227 ft 457 kts 349°
2026-04-24 11:13 35.59078 104.11231 36228 ft 457 kts 349°
2026-04-24 11:14 35.65423 104.11258 36228 ft 457 kts 349°
2026-04-24 11:14 35.71746 104.11285 36228 ft 458 kts 349°
2026-04-24 11:15 35.78076 104.11314 36227 ft 456 kts 349°
2026-04-24 11:15 35.84421 104.11248 36228 ft 452 kts 345°
2026-04-24 11:16 35.90619 104.10525 36227 ft 448 kts 343°
2026-04-24 11:16 35.96795 104.09830 36228 ft 450 kts 344°
2026-04-24 11:17 36.02988 104.09152 36227 ft 450 kts 343°
2026-04-24 11:17 36.09219 104.08463 36228 ft 450 kts 344°
2026-04-24 11:18 36.15416 104.07783 36228 ft 449 kts 344°
2026-04-24 11:18 36.21605 104.07101 36228 ft 449 kts 344°
2026-04-24 11:19 36.27806 104.06285 36224 ft 439 kts 337°
2026-04-24 11:19 36.30632 104.05215 36227 ft 420 kts 324°
2026-04-24 11:19 36.33093 104.03440 36231 ft 403 kts 312°
2026-04-24 11:20 36.36856 103.98630 36227 ft 382 kts 294°
2026-04-24 11:20 36.39468 103.92943 36227 ft 378 kts 292°
2026-04-24 11:21 36.42131 103.87350 36227 ft 378 kts 292°
2026-04-24 11:21 36.44770 103.81729 36227 ft 377 kts 292°
2026-04-24 11:22 36.47408 103.76105 36228 ft 378 kts 292°
2026-04-24 11:22 36.50040 103.70485 36228 ft 377 kts 292°
2026-04-24 11:23 36.52739 103.64921 36227 ft 382 kts 297°
2026-04-24 11:23 36.56461 103.60019 36228 ft 402 kts 313°
2026-04-24 11:24 36.61130 103.56074 36227 ft 407 kts 315°
2026-04-24 11:24 36.65761 103.52106 36228 ft 406 kts 315°
2026-04-24 11:25 36.70427 103.48141 36227 ft 407 kts 315°
2026-04-24 11:25 36.75078 103.44199 36228 ft 407 kts 315°
2026-04-24 11:26 36.79730 103.40253 36228 ft 407 kts 315°
2026-04-24 11:26 36.84395 103.36294 36230 ft 408 kts 315°
2026-04-24 11:27 36.89071 103.32324 36227 ft 406 kts 315°
2026-04-24 11:27 36.93379 103.28009 36228 ft 391 kts 304°
2026-04-24 11:28 36.96513 103.22648 36229 ft 379 kts 293°
2026-04-24 11:28 36.99336 103.17069 36227 ft 381 kts 294°
2026-04-24 11:29 37.02177 103.11517 36229 ft 380 kts 294°
2026-04-24 11:29 37.04997 103.05924 36228 ft 382 kts 294°
2026-04-24 11:30 37.07829 103.00295 36228 ft 384 kts 294°
2026-04-24 11:30 37.10644 102.94667 36228 ft 385 kts 294°
2026-04-24 11:31 37.13467 102.88972 36228 ft 386 kts 294°
2026-04-24 11:31 37.16330 102.83304 36227 ft 385 kts 294°
2026-04-24 11:32 37.19169 102.77603 36226 ft 384 kts 294°
2026-04-24 11:32 37.21970 102.71953 36229 ft 385 kts 294°
2026-04-24 11:33 37.24813 102.66251 36227 ft 385 kts 294°
2026-04-24 11:33 37.27637 102.60567 36227 ft 384 kts 294°
2026-04-24 11:34 37.30423 102.54887 36226 ft 385 kts 294°
2026-04-24 11:34 37.33246 102.49193 36228 ft 385 kts 294°
2026-04-24 11:35 37.35719 102.43333 36227 ft 376 kts 284°
2026-04-24 11:35 37.37088 102.37070 36226 ft 371 kts 278°
2026-04-24 11:36 37.38379 102.30801 36228 ft 371 kts 279°
2026-04-24 11:36 37.39650 102.24545 36228 ft 370 kts 278°
2026-04-24 11:37 37.40895 102.18285 36227 ft 370 kts 278°
2026-04-24 11:37 37.42135 102.12017 36228 ft 370 kts 278°
2026-04-24 11:38 37.43357 102.05745 36228 ft 370 kts 278°
2026-04-24 11:38 37.44585 101.99455 36228 ft 370 kts 278°
2026-04-24 11:39 37.45793 101.93192 36227 ft 370 kts 278°
2026-04-24 11:39 37.47007 101.86911 36227 ft 370 kts 278°
2026-04-24 11:40 37.48209 101.80623 36227 ft 370 kts 278°
2026-04-24 11:40 37.49405 101.74339 36229 ft 369 kts 278°
2026-04-24 11:41 37.50837 101.68128 36226 ft 377 kts 287°
2026-04-24 11:41 37.53280 101.62243 36227 ft 381 kts 291°
2026-04-24 11:42 37.55739 101.56342 36227 ft 380 kts 290°
2026-04-24 11:42 37.58225 101.50472 36227 ft 381 kts 291°
2026-04-24 11:43 37.60725 101.44581 36228 ft 381 kts 291°
2026-04-24 11:43 37.63196 101.38708 36229 ft 381 kts 291°
2026-04-24 11:44 37.65679 101.32809 36228 ft 381 kts 290°
2026-04-24 11:44 37.68162 101.26948 36228 ft 381 kts 290°
2026-04-24 11:45 37.70685 101.21045 36228 ft 381 kts 290°
2026-04-24 11:45 37.73140 101.15172 36228 ft 380 kts 290°
2026-04-24 11:46 37.75619 101.09271 36228 ft 381 kts 290°
2026-04-24 11:46 37.78114 101.03380 36228 ft 381 kts 290°
2026-04-24 11:47 37.80593 100.97484 36227 ft 381 kts 290°
2026-04-24 11:47 37.83055 100.91599 36227 ft 381 kts 291°
2026-04-24 11:48 37.85655 100.85744 36228 ft 383 kts 292°
2026-04-24 11:48 37.88285 100.79878 36228 ft 383 kts 292°
2026-04-24 11:49 37.90898 100.74007 36228 ft 385 kts 292°
2026-04-24 11:49 37.93515 100.68128 36228 ft 384 kts 292°
2026-04-24 11:50 37.96122 100.62257 36228 ft 384 kts 292°
2026-04-24 11:50 37.98730 100.56370 36228 ft 384 kts 292°
2026-04-24 11:51 38.01337 100.50478 36227 ft 384 kts 292°
2026-04-24 11:51 38.03942 100.44579 36228 ft 383 kts 292°
2026-04-24 11:52 38.06526 100.38713 36228 ft 384 kts 292°
2026-04-24 11:52 38.09134 100.32783 36227 ft 384 kts 291°
2026-04-24 11:53 38.11730 100.26877 36228 ft 383 kts 291°
2026-04-24 11:53 38.14309 100.20991 36228 ft 383 kts 291°
2026-04-24 11:54 38.16890 100.15092 36228 ft 383 kts 291°
2026-04-24 11:54 38.19468 100.09186 36228 ft 384 kts 291°
2026-04-24 11:55 38.22037 100.03294 36228 ft 383 kts 291°
2026-04-24 11:55 38.24616 99.97364 36228 ft 383 kts 292°
2026-04-24 11:56 38.27175 99.91473 36228 ft 382 kts 291°
2026-04-24 11:56 38.29749 99.85536 36228 ft 383 kts 291°
2026-04-24 11:57 38.32311 99.79612 36229 ft 383 kts 291°
2026-04-24 11:57 38.34867 99.73691 36228 ft 384 kts 291°
2026-04-24 11:58 38.37427 99.67750 36228 ft 384 kts 291°
2026-04-24 11:58 38.39981 99.61816 36228 ft 383 kts 291°
2026-04-24 11:59 38.42536 99.55866 36228 ft 384 kts 291°
2026-04-24 11:59 38.45084 99.49921 36228 ft 384 kts 291°
2026-04-24 12:00 38.47648 99.43926 36227 ft 383 kts 291°
2026-04-24 12:00 38.50181 99.37994 36228 ft 383 kts 291°
2026-04-24 12:01 38.52723 99.32026 36228 ft 384 kts 291°
2026-04-24 12:01 38.55265 99.26054 36228 ft 384 kts 291°
2026-04-24 12:02 38.57796 99.20094 36228 ft 382 kts 291°
2026-04-24 12:02 38.60336 99.14099 36228 ft 382 kts 291°
2026-04-24 12:03 38.62855 99.08143 36229 ft 383 kts 291°
2026-04-24 12:03 38.65367 99.02189 36228 ft 384 kts 291°
2026-04-24 12:04 38.67921 98.96149 36227 ft 385 kts 291°
2026-04-24 12:04 38.70445 98.90135 36227 ft 386 kts 291°
2026-04-24 12:05 38.72987 98.84056 36228 ft 388 kts 291°
2026-04-24 12:05 38.75539 98.78025 36227 ft 388 kts 291°
2026-04-24 12:06 38.78075 98.71941 36227 ft 385 kts 291°
2026-04-24 12:06 38.80573 98.65926 36228 ft 386 kts 291°
2026-04-24 12:07 38.83128 98.59829 36227 ft 387 kts 291°
2026-04-24 12:07 38.85639 98.53777 36229 ft 387 kts 291°
2026-04-24 12:08 38.88152 98.47669 36229 ft 387 kts 291°
2026-04-24 12:08 38.90676 98.41619 36228 ft 387 kts 291°
2026-04-24 12:09 38.93195 98.35522 36228 ft 389 kts 291°
2026-04-24 12:09 38.95710 98.29408 36227 ft 390 kts 291°
2026-04-24 12:10 38.98243 98.23255 36228 ft 390 kts 291°
2026-04-24 12:11 39.02040 98.14003 36228 ft 391 kts 291°
2026-04-24 12:11 39.04560 98.07849 36228 ft 392 kts 292°
2026-04-24 12:12 39.07098 98.01639 36228 ft 392 kts 292°
2026-04-24 12:12 39.09624 97.95447 36228 ft 392 kts 292°
2026-04-24 12:13 39.12148 97.89247 36228 ft 392 kts 292°
2026-04-24 12:13 39.14669 97.83042 36228 ft 392 kts 292°
2026-04-24 12:14 39.17181 97.76848 36228 ft 391 kts 292°
2026-04-24 12:14 39.19686 97.70656 36228 ft 392 kts 292°
2026-04-24 12:15 39.22201 97.64429 36255 ft 391 kts 292°
2026-04-24 12:15 39.24715 97.58202 36255 ft 392 kts 292°
2026-04-24 12:16 39.27229 97.51981 36255 ft 392 kts 292°
2026-04-24 12:16 39.29736 97.45760 36255 ft 391 kts 292°
2026-04-24 12:17 39.32236 97.39542 36255 ft 391 kts 292°
2026-04-24 12:17 39.34727 97.33335 36255 ft 392 kts 291°
2026-04-24 12:18 39.37219 97.27112 36255 ft 391 kts 291°
2026-04-24 12:18 39.39710 97.20880 36255 ft 391 kts 291°
2026-04-24 12:19 39.42201 97.14635 36255 ft 392 kts 291°
2026-04-24 12:19 39.44700 97.08352 36255 ft 395 kts 291°
2026-04-24 12:20 39.47205 97.02050 36255 ft 398 kts 291°
2026-04-24 12:20 39.49770 96.95664 36256 ft 401 kts 292°
2026-04-24 12:21 39.52332 96.89300 36253 ft 402 kts 292°
2026-04-24 12:21 39.54887 96.82873 36254 ft 400 kts 292°
2026-04-24 12:22 39.57436 96.76487 36255 ft 400 kts 292°
2026-04-24 12:22 39.59975 96.70112 36254 ft 400 kts 292°
2026-04-24 12:23 39.62504 96.63706 36255 ft 400 kts 292°
2026-04-24 12:23 39.65026 96.57323 36255 ft 400 kts 292°
2026-04-24 12:24 39.67578 96.50874 36254 ft 401 kts 292°
2026-04-24 12:24 39.70114 96.44455 36255 ft 400 kts 292°
2026-04-24 12:25 39.72616 96.38042 36255 ft 399 kts 292°
2026-04-24 12:25 39.75124 96.31610 36254 ft 400 kts 291°
2026-04-24 12:26 39.77634 96.25196 36254 ft 400 kts 291°
2026-04-24 12:26 39.80133 96.18796 36255 ft 400 kts 291°
2026-04-24 12:27 39.82632 96.12358 36255 ft 399 kts 291°
2026-04-24 12:27 39.85123 96.05933 36256 ft 399 kts 291°
2026-04-24 12:28 39.87629 95.99449 36255 ft 400 kts 291°
2026-04-24 12:28 39.90103 95.93017 36255 ft 398 kts 291°
2026-04-24 12:29 39.92569 95.86607 36256 ft 399 kts 291°
2026-04-24 12:29 39.95061 95.80153 36254 ft 400 kts 291°
2026-04-24 12:30 39.97555 95.73686 36255 ft 399 kts 291°
2026-04-24 12:30 40.00029 95.67259 36254 ft 398 kts 291°
2026-04-24 12:31 40.02486 95.60777 36249 ft 399 kts 291°
2026-04-24 12:31 40.04937 95.54311 36235 ft 399 kts 291°
2026-04-24 12:32 40.07407 95.47858 36213 ft 399 kts 291°
2026-04-24 12:32 40.09873 95.41357 36194 ft 400 kts 291°
2026-04-24 12:33 40.12322 95.34857 36179 ft 400 kts 290°
2026-04-24 12:33 40.14794 95.28370 36175 ft 399 kts 291°
2026-04-24 12:34 40.17234 95.21877 36174 ft 399 kts 290°
2026-04-24 12:34 40.19657 95.15385 36175 ft 399 kts 290°
2026-04-24 12:35 40.22137 95.08861 36173 ft 400 kts 291°
2026-04-24 12:35 40.24616 95.02399 36173 ft 399 kts 291°
2026-04-24 12:36 40.27068 94.95920 36174 ft 399 kts 291°
2026-04-24 12:36 40.29543 94.89500 36173 ft 403 kts 294°
2026-04-24 12:37 40.32710 94.83451 36174 ft 409 kts 304°
2026-04-24 12:37 40.36221 94.77572 36174 ft 409 kts 303°
2026-04-24 12:38 40.39700 94.71721 36174 ft 409 kts 304°
2026-04-24 12:38 40.43210 94.65876 36174 ft 409 kts 304°
2026-04-24 12:39 40.50248 94.54164 36174 ft 409 kts 304°
2026-04-24 12:40 40.53764 94.48308 36174 ft 409 kts 304°
2026-04-24 12:40 40.57266 94.42466 36174 ft 409 kts 304°
2026-04-24 12:41 40.60784 94.36589 36174 ft 409 kts 304°
2026-04-24 12:41 40.64283 94.30733 36174 ft 409 kts 303°
2026-04-24 12:42 40.67777 94.24876 36174 ft 408 kts 303°
2026-04-24 12:42 40.71261 94.19023 36174 ft 408 kts 303°
2026-04-24 12:43 40.74771 94.13116 36174 ft 408 kts 303°
2026-04-24 12:43 40.78262 94.07231 36174 ft 408 kts 303°
2026-04-24 12:44 40.81739 94.01356 36174 ft 408 kts 303°
2026-04-24 12:44 40.85225 93.95456 36174 ft 408 kts 303°
2026-04-24 12:45 40.88689 93.89583 36174 ft 408 kts 303°
2026-04-24 12:45 40.92189 93.83665 36174 ft 409 kts 305°
2026-04-24 12:46 40.95895 93.77963 36174 ft 410 kts 307°
2026-04-24 12:46 40.99606 93.72247 36174 ft 410 kts 306°
2026-04-24 12:47 41.03298 93.66524 36174 ft 409 kts 307°
2026-04-24 12:47 41.06972 93.60815 36174 ft 408 kts 307°
2026-04-24 12:48 41.10635 93.55093 36173 ft 407 kts 307°
2026-04-24 12:48 41.14278 93.49363 36175 ft 409 kts 307°
2026-04-24 12:49 41.17925 93.43667 36175 ft 407 kts 307°
2026-04-24 12:49 41.21591 93.37940 36175 ft 406 kts 307°
2026-04-24 12:50 41.25253 93.32235 36172 ft 406 kts 307°
2026-04-24 12:50 41.28907 93.26560 36175 ft 407 kts 307°
2026-04-24 12:51 41.32527 93.20791 36174 ft 407 kts 306°
2026-04-24 12:51 41.36118 93.15026 36173 ft 405 kts 306°
2026-04-24 12:52 41.39737 93.09261 36174 ft 406 kts 307°
2026-04-24 12:52 41.43391 93.03552 36172 ft 408 kts 308°
2026-04-24 12:53 41.47057 92.97778 36174 ft 409 kts 308°
2026-04-24 12:53 41.50706 92.91962 36175 ft 410 kts 308°
2026-04-24 12:54 41.54364 92.86151 36175 ft 410 kts 308°
2026-04-24 12:54 41.58005 92.80328 36173 ft 410 kts 308°
2026-04-24 12:55 41.61639 92.74470 36173 ft 410 kts 308°
2026-04-24 12:55 41.65271 92.68631 36174 ft 411 kts 308°
2026-04-24 12:56 41.68939 92.62785 36174 ft 410 kts 308°
2026-04-24 12:56 41.72590 92.56964 36174 ft 410 kts 308°
2026-04-24 12:57 41.76236 92.51124 36174 ft 410 kts 308°
2026-04-24 12:57 41.79834 92.45254 36173 ft 410 kts 308°
2026-04-24 12:58 41.83480 92.39356 36175 ft 411 kts 308°
2026-04-24 12:58 41.87118 92.33476 36173 ft 410 kts 307°
2026-04-24 12:59 41.90730 92.27618 36174 ft 409 kts 307°
2026-04-24 12:59 41.94321 92.21739 36175 ft 410 kts 307°
2026-04-24 13:00 41.97927 92.15814 36174 ft 410 kts 307°
2026-04-24 13:00 42.01522 92.09924 36173 ft 409 kts 307°
2026-04-24 13:01 42.05129 92.04031 36175 ft 410 kts 308°
2026-04-24 13:01 42.08685 91.98231 36203 ft 410 kts 308°
2026-04-24 13:02 42.12306 91.92319 36200 ft 410 kts 307°
2026-04-24 13:02 42.15913 91.86401 36200 ft 410 kts 307°
2026-04-24 13:03 42.19503 91.80496 36201 ft 409 kts 308°
2026-04-24 13:03 42.23381 91.74828 36198 ft 413 kts 318°
2026-04-24 13:04 42.28182 91.70592 36201 ft 416 kts 326°
2026-04-24 13:04 42.33073 91.66497 36201 ft 415 kts 325°
2026-04-24 13:05 42.37990 91.62386 36200 ft 416 kts 326°
2026-04-24 13:05 42.42899 91.58350 36200 ft 417 kts 326°
2026-04-24 13:06 42.47831 91.54276 36201 ft 416 kts 326°
2026-04-24 13:06 42.52738 91.50200 36201 ft 415 kts 326°
2026-04-24 13:07 42.57641 91.46124 36200 ft 416 kts 326°
2026-04-24 13:07 42.62551 91.42039 36202 ft 416 kts 326°
2026-04-24 13:08 42.67486 91.37987 36202 ft 415 kts 326°
2026-04-24 13:08 42.72434 91.33923 36201 ft 416 kts 325°
2026-04-24 13:09 42.79778 91.27824 36201 ft 414 kts 325°
2026-04-24 13:09 42.84688 91.23730 36202 ft 415 kts 325°
2026-04-24 13:10 42.89205 91.18974 36202 ft 411 kts 314°
2026-04-24 13:10 42.93243 91.13602 36200 ft 408 kts 314°
2026-04-24 13:11 42.97321 91.08244 36201 ft 407 kts 314°
2026-04-24 13:11 43.01363 91.02847 36202 ft 406 kts 313°
2026-04-24 13:12 43.05344 90.97457 36201 ft 406 kts 313°
2026-04-24 13:12 43.09330 90.91988 36200 ft 407 kts 313°
2026-04-24 13:13 43.13322 90.86501 36202 ft 406 kts 313°
2026-04-24 13:13 43.17283 90.81044 36200 ft 407 kts 313°
2026-04-24 13:14 43.21283 90.75564 36201 ft 408 kts 313°
2026-04-24 13:14 43.25267 90.70129 36201 ft 406 kts 313°
2026-04-24 13:15 43.29248 90.64631 36201 ft 407 kts 313°
2026-04-24 13:15 43.33248 90.59126 36201 ft 407 kts 313°
2026-04-24 13:16 43.37219 90.53659 36202 ft 406 kts 313°
2026-04-24 13:16 43.41073 90.47993 36201 ft 406 kts 310°
2026-04-24 13:17 43.44851 90.42244 36200 ft 406 kts 311°
2026-04-24 13:17 43.48654 90.36547 36202 ft 407 kts 311°
2026-04-24 13:18 43.52505 90.30849 36200 ft 406 kts 311°
2026-04-24 13:18 43.56340 90.25169 36201 ft 406 kts 310°
2026-04-24 13:19 43.60106 90.19445 36202 ft 406 kts 310°
2026-04-24 13:19 43.63907 90.13680 36201 ft 406 kts 310°
2026-04-24 13:20 43.67365 90.07593 36200 ft 404 kts 298°
2026-04-24 13:20 43.69350 90.00388 36201 ft 404 kts 287°
2026-04-24 13:21 43.71038 89.93038 36200 ft 404 kts 288°
2026-04-24 13:21 43.72764 89.85659 36200 ft 403 kts 288°
2026-04-24 13:22 43.74421 89.78311 36200 ft 403 kts 288°
2026-04-24 13:22 43.76091 89.70905 36202 ft 403 kts 288°
2026-04-24 13:23 43.77753 89.63504 36200 ft 403 kts 288°
2026-04-24 13:23 43.79407 89.56097 36201 ft 405 kts 288°
2026-04-24 13:24 43.81084 89.48691 36201 ft 403 kts 288°
2026-04-24 13:24 43.82807 89.41355 36200 ft 403 kts 289°
2026-04-24 13:25 43.84530 89.33968 36202 ft 404 kts 287°
2026-04-24 13:25 43.86216 89.26557 36201 ft 403 kts 288°
2026-04-24 13:26 43.87904 89.19177 36201 ft 403 kts 288°
2026-04-24 13:26 43.89582 89.11842 35840 ft 398 kts 288°
2026-04-24 13:27 43.90411 89.08215 35418 ft 391 kts 288°
2026-04-24 13:27 43.91227 89.04639 34952 ft 386 kts 288°
2026-04-24 13:27 43.92020 89.01138 34487 ft 381 kts 288°
2026-04-24 13:27 43.92812 88.97652 34022 ft 377 kts 288°
2026-04-24 13:28 43.93597 88.94209 33564 ft 380 kts 288°
2026-04-24 13:28 43.94394 88.90725 33091 ft 381 kts 288°
2026-04-24 13:28 43.95196 88.87229 32616 ft 377 kts 288°
2026-04-24 13:28 43.95976 88.83789 32153 ft 372 kts 287°
2026-04-24 13:29 43.96744 88.80387 31692 ft 368 kts 288°
2026-04-24 13:29 43.97559 88.77020 31238 ft 371 kts 289°
2026-04-24 13:29 43.98410 88.73644 30769 ft 371 kts 289°
2026-04-24 13:29 43.99242 88.70301 30307 ft 366 kts 289°
2026-04-24 13:30 44.00058 88.66972 29849 ft 362 kts 289°
2026-04-24 13:30 44.00860 88.63703 29399 ft 358 kts 289°
2026-04-24 13:30 44.01653 88.60474 28953 ft 354 kts 289°
2026-04-24 13:30 44.02449 88.57228 28508 ft 355 kts 289°
2026-04-24 13:31 44.03241 88.53992 28058 ft 357 kts 289°
2026-04-24 13:31 44.04032 88.50753 27604 ft 353 kts 289°
2026-04-24 13:31 44.04812 88.47559 27160 ft 349 kts 289°
2026-04-24 13:31 44.05578 88.44412 26722 ft 345 kts 289°
2026-04-24 13:32 44.06339 88.41287 26288 ft 341 kts 289°
2026-04-24 13:32 44.07098 88.38162 25856 ft 341 kts 289°
2026-04-24 13:32 44.07859 88.35028 25418 ft 344 kts 289°
2026-04-24 13:32 44.08619 88.31888 24977 ft 340 kts 288°
2026-04-24 13:33 44.09362 88.28820 24547 ft 336 kts 289°
2026-04-24 13:33 44.10104 88.25752 24119 ft 333 kts 288°
2026-04-24 13:33 44.10836 88.22716 23694 ft 329 kts 289°
2026-04-24 13:33 44.11552 88.19749 23278 ft 326 kts 289°
2026-04-24 13:34 44.12315 88.16736 22852 ft 331 kts 291°
2026-04-24 13:34 44.13140 88.13760 22419 ft 329 kts 291°
2026-04-24 13:34 44.13948 88.10826 22000 ft 325 kts 291°
2026-04-24 13:34 44.14740 88.07900 21584 ft 322 kts 291°
2026-04-24 13:35 44.15522 88.05019 21175 ft 318 kts 291°
2026-04-24 13:35 44.16268 88.02268 20780 ft 315 kts 291°
2026-04-24 13:35 44.16980 87.99406 20380 ft 316 kts 287°
2026-04-24 13:35 44.17443 87.96373 19964 ft 319 kts 278°
2026-04-24 13:36 44.17701 87.93340 19551 ft 316 kts 278°
2026-04-24 13:36 44.17971 87.90335 19144 ft 312 kts 278°
2026-04-24 13:36 44.18249 87.87353 18736 ft 309 kts 278°
2026-04-24 13:36 44.18501 87.84382 18342 ft 306 kts 276°
2026-04-24 13:37 44.18541 87.81438 17946 ft 308 kts 266°
2026-04-24 13:37 44.18136 87.78452 17540 ft 312 kts 256°
2026-04-24 13:37 44.17512 87.75608 17141 ft 309 kts 255°
2026-04-24 13:37 44.16914 87.72742 16739 ft 306 kts 256°
2026-04-24 13:38 44.16333 87.69909 16342 ft 303 kts 256°
2026-04-24 13:38 44.15751 87.67139 15953 ft 300 kts 256°
2026-04-24 13:38 44.15167 87.64369 15563 ft 298 kts 256°
2026-04-24 13:38 44.14573 87.61552 15172 ft 303 kts 256°
2026-04-24 13:39 44.13986 87.58781 14773 ft 301 kts 256°
2026-04-24 13:39 44.13394 87.55997 14402 ft 297 kts 256°
2026-04-24 13:39 44.12810 87.53254 14021 ft 294 kts 255°
2026-04-24 13:39 44.11991 87.50684 13654 ft 293 kts 238°
2026-04-24 13:40 44.10575 87.48666 13269 ft 295 kts 216°
2026-04-24 13:40 44.08715 87.47439 12873 ft 297 kts 198°
2026-04-24 13:40 44.06712 87.47093 12631 ft 293 kts 177°
2026-04-24 13:40 44.04752 87.47726 12543 ft 285 kts 160°
2026-04-24 13:41 44.03102 87.49178 12375 ft 290 kts 133°
2026-04-24 13:41 44.02134 87.51642 12067 ft 291 kts 100°
2026-04-24 13:41 44.02226 87.54364 11750 ft 285 kts 68°
2026-04-24 13:41 44.03270 87.56648 11368 ft 278 kts 46°
2026-04-24 13:42 44.04449 87.58723 11010 ft 279 kts 60°
2026-04-24 13:42 44.05128 87.61264 10707 ft 277 kts 72°
2026-04-24 13:42 44.05652 87.63818 10386 ft 275 kts 71°
2026-04-24 13:42 44.06203 87.66352 10071 ft 274 kts 71°
2026-04-24 13:43 44.06742 87.68868 9755 ft 272 kts 71°
2026-04-24 13:43 44.07271 87.71365 9415 ft 268 kts 71°
2026-04-24 13:43 44.07788 87.73810 9075 ft 262 kts 71°
2026-04-24 13:43 44.08297 87.76220 8777 ft 255 kts 71°
2026-04-24 13:44 44.08790 87.78554 8493 ft 248 kts 71°
2026-04-24 13:44 44.09220 87.80833 8206 ft 243 kts 81°
2026-04-24 13:44 44.09081 87.83152 7935 ft 239 kts 109°
2026-04-24 13:44 44.08242 87.85072 7696 ft 231 kts 133°
2026-04-24 13:45 44.06978 87.86355 7400 ft 220 kts 158°
2026-04-24 13:45 44.05567 87.86960 7175 ft 207 kts 165°
2026-04-24 13:45 44.04225 87.87500 6968 ft 197 kts 164°
2026-04-24 13:45 44.02882 87.87797 6811 ft 196 kts 189°
2026-04-24 13:46 44.01647 87.87113 6764 ft 194 kts 220°
2026-04-24 13:46 44.00812 87.85698 6508 ft 183 kts 246°
2026-04-24 13:46 44.00200 87.84214 6307 ft 179 kts 236°
2026-04-24 13:46 43.99443 87.82850 6127 ft 179 kts 236°
2026-04-24 13:47 43.98698 87.81470 5957 ft 176 kts 237°
2026-04-24 13:47 43.97990 87.80074 5876 ft 178 kts 237°
2026-04-24 13:47 43.97340 87.78624 5772 ft 175 kts 249°
2026-04-24 13:47 43.96923 87.77052 5685 ft 175 kts 253°
2026-04-24 13:48 43.96527 87.75452 5523 ft 175 kts 256°
2026-04-24 13:48 43.96180 87.73828 5353 ft 173 kts 256°
2026-04-24 13:48 43.95840 87.72236 5192 ft 173 kts 257°
2026-04-24 13:48 43.95520 87.70639 5042 ft 173 kts 257°
2026-04-24 13:49 43.95191 87.69037 4928 ft 169 kts 256°
2026-04-24 13:49 43.94875 87.67467 4923 ft 170 kts 258°
2026-04-24 13:49 43.94593 87.65871 4804 ft 170 kts 260°
2026-04-24 13:49 43.94311 87.64283 4618 ft 171 kts 257°
2026-04-24 13:50 43.93966 87.62716 4385 ft 170 kts 255°
2026-04-24 13:50 43.93614 87.61168 4127 ft 167 kts 255°
2026-04-24 13:50 43.93285 87.59624 3750 ft 164 kts 257°
2026-04-24 13:50 43.92980 87.58134 3387 ft 161 kts 256°
2026-04-24 13:51 43.92667 87.56647 3077 ft 161 kts 257°
2026-04-24 13:51 43.92374 87.55169 2833 ft 157 kts 256°
2026-04-24 13:51 43.92028 87.53708 2622 ft 158 kts 255°
2026-04-24 13:51 43.91724 87.52238 2471 ft 161 kts 258°
2026-04-24 13:52 43.91517 87.51238 2352 ft 161 kts 255°
2026-04-24 13:52 43.91105 87.49277 2145 ft 157 kts 256°
2026-04-24 13:52 43.90834 87.47972 2134 ft 111 kts 254°
2026-04-24 13:52 43.90670 87.47209 2134 ft 60 kts 255°
2026-04-24 13:53 43.90577 87.46779 2134 ft 42 kts 254°
2026-04-24 13:53 43.90488 87.46353 2134 ft 46 kts 253°
2026-04-24 13:53 43.90404 87.45953 2134 ft 37 kts 255°
2026-04-24 13:53 43.90328 87.45802 2134 ft 16 kts 172°
2026-04-24 13:54 43.90218 87.45843 2134 ft 17 kts 164°
2026-04-24 13:54 43.90090 87.45895 2134 ft 22 kts 163°
2026-04-24 13:54 43.89913 87.45969 2134 ft 29 kts 164°
2026-04-24 13:54 43.89792 87.46024 2134 ft 9 kts 135°
2026-04-24 13:55 43.89784 87.46124 2134 ft 12 kts 89°
2026-04-24 13:55 43.89784 87.46256 2134 ft 15 kts 90°
2026-04-24 13:55 43.89784 87.46381 2134 ft 6 kts 97°
2026-04-24 13:55 43.89764 87.46401 2134 ft 4 kts 180°
2026-04-24 13:56 43.89740 87.46400 2134 ft 0 kts 181°